Showing default

QIANFAN-65, 62795

Orbit data source: Space-Track

QIANFAN-65, 62795 is a Chinese payload satellite in LEO that was launched on Thu, 23 Jan 2025 UTC via a CHANG ZHENG 6A launch vehicle from the Taiyaun Space Center, China (TSC). Payload-class satellites include a variety of spacecraft equipped with specific instruments for various scientific and technological missions. These include communications satellites like Starlink; space stations such as the ISS; scientific satellites like the Hubble; Earth observation satellites from companies like Planet Labs, Umbra, and HawkEye 360; GPS; miniature CubeSats for education and research; and military/defense satellites.

Loading next visibility...
Identifier
62795, 2025-016L
Orbit
LEO
Country
Flag of CNCN / PRC
Related business
Manufacturer
SECM
Mission
Operational Commercial Communications
Bus & Motor
QIANFAN, Unknown motor
Mass
267 kg wet, ~267 kg dry
Launch date (UTC)
2025-01-23 (9 months ago)
Launch vehicle
CHANG ZHENG 6A
Launch site
Taiyaun Space Center, China (TSC)
Object type
Payload
Rocket body
Debris
Shape & HBR
Box + 1 Pan, 1.6 m
Radar Cross Section
13.200 m², Large (>1 m²)

Expand to show TLE details & history
Last TLE update: 1 day ago

TLE from 1 day ago
0 QIANFAN-65
1 62795U 25016L   25306.43950950  .00000064  00000-0  80661-4 0  9999
2 62795  88.9729 107.2264 0015617  99.3197 260.9721 13.50974161 41801
Epoch: 2025-11-02T10:32Z
TLE epoch observation values (Epoch: 2025-11-02T10:32:53.620Z)
Latitude
-0.00002°
Longitude
-92.95223°
Altitude
1,073.473 km
Speed
7.314 km/s
True Right ascension
07h 08m 54s
True Declination
0° 00' 00"
Sunlit
Object was in daylight at epoch
Visualization orbit readout
Latitude
Unknown
Longitude
Unknown
Altitude
Unknown
Speed
Unknown
Apparent Right ascension
Unknown
Apparent Declination
Unknown
Sunlit
N/A
Visualization observer readout
Local Sidereal Time
14:39:25
Azimuth
Unknown
Elevation
Unknown
Doppler factor
Unknown
Orbital elements
Apogee altitude
1,077.353 km
Perigee altitude
1,054.103 km
Semi-major axis
7,443.865 km
Eccentricity
0.00156
Inclination
88.9729°
RAAN
107.2264°
Arg. of periapsis
99.3197°
True anomaly
260.79541°
Mean anomaly
260.9721°
Eccentric anomaly
260.88375°
Mean motion
3.37945 °/min
Orbital period
106.53 mins
BSTAR
0.000080661
Loading maneuver chart data...
Computing Atmospheric mass density...
Loading historical data...
Loading historical data...
Loading historical data...
Loading historical data...
Loading historical data...
Loading historical data...
Loading historical data...

Documentation

Showing up to 5 results
|